This is the latest recevied weather packets stored in our database for station/object OK1KZE-6. If no packets are shown the sender has not sent any weather packets the latest 10 day(s).
| Time | Temp. | Humidity | Pressure | Rain* | Wind** | Luminosity | Snow |
|---|---|---|---|---|---|---|---|
| 1777524309 | 2.78° C | 54% | 1032.5 hPa | - | - | - | - |
| 1777524008 | 2.78° C | 53% | 1032.3 hPa | - | - | - | - |
| 1777523708 | 3.33° C | 51% | 1032.4 hPa | - | - | - | - |
| 1777523409 | 3.33° C | 50% | 1032.3 hPa | - | - | - | - |
| 1777523107 | 3.33° C | 51% | 1032.1 hPa | - | - | - | - |
| 1777522808 | 2.78° C | 54% | 1032.2 hPa | - | - | - | - |
| 1777522509 | 2.22° C | 55% | 1032.1 hPa | - | - | - | - |
| 1777522208 | 2.78° C | 54% | 1032.2 hPa | - | - | - | - |
| 1777521909 | 2.78° C | 55% | 1032 hPa | - | - | - | - |
| 1777521608 | 2.78° C | 53% | 1032.1 hPa | - | - | - | - |
| 1777521308 | 2.22° C | 52% | 1031.9 hPa | - | - | - | - |
| 1777521008 | 2.22° C | 51% | 1031.9 hPa | - | - | - | - |
| 1777520708 | 2.78° C | 50% | 1031.8 hPa | - | - | - | - |
| 1777520408 | 2.78° C | 47% | 1031.8 hPa | - | - | - | - |
| 1777520108 | 2.78° C | 47% | 1031.8 hPa | - | - | - | - |
| 1777519808 | 2.78° C | 47% | 1031.7 hPa | - | - | - | - |
| 1777519508 | 2.78° C | 48% | 1031.8 hPa | - | - | - | - |
| 1777519207 | 2.22° C | 49% | 1032 hPa | - | - | - | - |
| 1777518608 | 2.78° C | 48% | 1031.8 hPa | - | - | - | - |
| 1777518307 | 2.78° C | 47% | 1031.7 hPa | - | - | - | - |
| 1777518009 | 2.78° C | 47% | 1031.7 hPa | - | - | - | - |
| 1777517708 | 2.78° C | 46% | 1031.6 hPa | - | - | - | - |
| 1777517408 | 2.78° C | 46% | 1031.5 hPa | - | - | - | - |
| 1777517108 | 2.78° C | 47% | 1031.7 hPa | - | - | - | - |
| 1777516508 | 3.33° C | 45% | 1031.7 hPa | - | - | - | - |
* Rain since midnight (hover to see other rain measurements)
** Current wind speed in m/s (hover to see current wind gust speed)